Wind_Speed
21 21 21 21 23 16 11 9 9 8 8 8 7 7 7 7 6 5 6 6 7 6 6 6 5 4 4 4 3 4 5 6 7 7 8 8 8 9 10 10 10 10 9 9 9 9 9 9 8
20 18 21 24 18 12 11 11 10 9 8 7 6 6 7 6 6 6 6 7 7 6 6 5 4 4 3 2 2 3 4 5 6 7 7 7 8 8 9 9 9 9 8 9 9 9 8 8 8
19 18 23 20 11 10 10 11 11 10 9 7 7 6 6 7 7 6 6 6 6 6 6 5 4 4 3 2 1 1 2 4 5 6 6 6 7 8 8 8 8 8 8 8 9 8 8 7 7
17 21 22 13 10 11 10 11 11 10 9 8 8 6 6 7 7 6 6 6 5 5 5 5 4 3 2 2 1 1 2 3 4 5 5 6 6 7 7 7 7 8 8 8 8 7 7 7 7
17 20 16 10 10 10 11 11 10 9 9 9 8 7 7 7 7 7 6 6 6 5 5 4 4 3 3 2 1 1 1 2 3 4 5 5 5 6 6 6 7 7 7 7 7 7 7 7 6
17 17 11 8 7 8 9 10 9 9 9 9 9 8 8 7 6 6 6 7 6 5 5 4 4 3 3 2 2 1 0 1 2 2 3 4 4 5 5 6 6 6 6 6 6 6 6 6 6
14 13 9 7 7 7 8 8 9 9 10 9 10 9 9 8 7 7 7 7 6 6 6 5 5 4 3 2 2 2 1 1 1 1 2 2 3 4 4 5 5 5 5 5 5 5 5 5 5
13 13 8 4 5 6 7 7 8 8 10 9 10 10 9 9 8 7 7 6 6 6 6 5 5 4 3 3 3 2 2 1 0 1 1 1 2 3 3 4 4 4 5 5 5 4 4 5 5
11 11 5 3 2 4 6 6 7 8 9 10 10 10 10 9 9 8 8 7 6 6 6 6 5 5 4 3 3 2 2 2 1 1 1 1 2 2 3 4 4 4 4 4 4 4 4 4 4
8 7 4 2 1 2 4 5 6 7 8 9 10 10 10 9 9 9 8 8 7 7 6 5 5 5 5 4 3 3 2 2 1 1 1 1 1 2 3 3 3 3 3 3 3 3 3 3 3
6 4 3 2 3 1 1 3 5 7 8 9 8 10 10 9 9 9 9 8 7 7 7 6 6 6 5 5 4 3 2 2 1 1 1 1 1 2 2 2 2 2 2 3 2 2 3 3 3
7 6 4 5 4 3 1 1 3 6 7 7 8 9 10 10 9 9 9 9 8 7 7 7 7 6 6 5 4 3 2 2 2 2 1 1 1 1 1 1 2 2 2 2 2 2 3 3 3
8 7 6 5 4 4 2 3 4 5 7 7 8 9 10 10 10 9 9 9 9 8 8 7 8 7 6 5 5 4 3 3 3 2 2 1 0 1 1 1 1 1 1 1 1 1 1 2 2
9 8 7 5 5 5 3 4 4 6 7 7 8 8 9 10 10 10 9 9 10 9 8 8 8 8 7 6 5 4 4 4 3 2 2 1 0 0 0 1 1 1 0 0 0 0 0 0 1
10 8 7 7 6 5 4 4 6 8 9 8 8 9 9 10 10 10 10 10 10 9 9 9 8 8 7 6 6 5 4 4 3 2 2 2 1 1 1 1 1 1 1 1 1 1 0 0 1
9 8 7 8 9 7 5 6 7 10 9 9 9 9 9 10 10 10 10 10 10 10 10 9 9 9 8 6 6 6 5 4 4 3 3 3 3 3 2 2 2 2 2 2 2 2 1 1 1
10 9 7 9 12 10 8 9 10 11 10 10 9 9 9 9 10 10 11 11 10 10 10 10 9 9 8 7 6 6 6 5 4 4 3 3 3 4 4 4 4 4 3 3 3 3 3 3 2
9 9 9 11 15 13 11 11 12 13 12 10 9 9 9 9 9 10 11 11 11 10 10 10 10 9 9 8 7 7 7 6 5 5 5 4 4 4 5 5 5 5 5 4 4 4 4 4 4
14 14 13 14 18 16 13 12 14 13 13 12 10 10 9 10 9 10 11 10 10 11 11 11 10 10 9 9 8 7 7 6 5 5 6 5 5 5 6 6 7 6 6 6 5 5 5 5 6
18 18 16 16 18 18 15 14 14 13 13 12 11 11 11 10 10 10 11 11 11 11 12 12 11 11 10 10 10 8 7 7 6 6 7 7 7 7 7 7 7 7 8 7 7 7 7 7 7
22 19 18 17 18 17 15 14 14 13 13 14 14 13 12 11 11 10 11 11 11 12 13 13 12 11 11 10 10 10 9 8 7 7 8 8 8 8 8 8 8 8 8 8 8 8 8 8 9
23 21 20 19 18 17 15 14 16 16 16 16 15 14 13 13 12 11 11 11 12 13 14 14 13 13 12 12 11 11 10 9 9 7 7 8 8 9 9 9 8 8 9 9 9 10 10 10 10
23 22 20 19 19 19 17 16 15 18 19 18 17 15 15 14 13 12 11 12 13 14 14 14 14 13 13 12 12 11 11 11 10 9 9 9 9 9 9 9 9 9 9 9 10 10 11 11 11
24 22 21 21 20 21 18 17 17 17 19 18 17 17 16 15 15 14 12 13 14 14 14 13 14 13 13 12 12 12 13 13 12 10 10 10 9 9 9 8 9 9 9 9 10 11 11 12 13
26 24 23 21 20 18 16 18 18 18 19 18 18 18 18 17 16 15 14 13 14 14 14 13 13 12 12 12 12 13 14 13 12 11 10 10 10 9 9 10 10 10 10 11 11 11 12 14 14
27 26 23 19 16 15 16 18 18 19 20 20 20 19 19 18 17 16 15 14 14 14 14 13 13 12 12 12 13 13 13 13 12 11 11 10 10 10 10 10 10 10 10 11 12 13 14 14 15
28 27 23 19 17 15 14 16 19 22 21 21 20 20 20 18 17 17 16 16 15 15 13 13 13 12 13 13 13 13 13 12 12 13 12 12 12 12 11 11 11 11 11 12 12 13 14 14 15
28 26 25 25 23 19 15 16 19 22 20 20 20 19 19 18 18 18 17 16 16 15 15 14 13 13 13 13 14 14 14 14 14 14 14 14 13 12 12 12 12 12 12 12 13 13 14 15 16
28 28 27 26 25 20 17 16 18 22 22 20 18 18 18 18 18 19 18 17 16 15 15 15 15 15 14 14 15 16 16 16 16 15 14 14 13 13 13 13 13 13 13 13 14 14 15 16 17
28 28 27 28 27 24 20 17 17 20 22 21 19 18 19 19 19 19 18 16 16 16 16 16 16 16 15 16 17 18 17 17 16 15 14 14 14 13 13 13 14 14 14 15 15 15 16 17 17
Wind_Direction
80 77 74 67 61 56 49 45 44 49 51 53 50 55 61 61 64 63 65 70 67 72 73 76 72 67 73 88 96 107 110 116 115 115 112 110 108 108 104 103 103 102 101 98 94 90 85 83 81
84 80 72 61 56 45 40 39 43 46 48 48 45 48 53 55 60 62 63 67 65 66 65 68 68 57 58 83 107 115 112 116 114 114 110 110 108 104 105 106 105 104 102 99 95 90 86 84 81
88 80 71 63 51 45 43 38 39 40 41 40 43 45 54 55 60 62 63 66 64 63 62 65 59 47 45 48 96 119 115 111 112 111 110 109 110 109 109 110 109 107 103 98 97 91 88 85 83
87 76 72 66 47 45 40 37 37 35 37 35 39 43 51 56 58 61 63 65 64 58 60 58 54 47 45 39 34 89 107 115 121 117 114 111 113 115 113 111 108 103 102 99 95 90 88 86 86
83 70 75 64 41 41 39 36 33 30 28 34 36 35 44 51 54 56 57 58 62 54 55 52 48 39 28 16 23 86 81 119 123 117 115 116 119 118 114 112 110 104 101 100 93 91 89 89 88
81 72 67 57 38 31 31 31 30 29 27 32 36 35 38 42 48 53 54 53 53 47 44 43 36 29 22 19 6 345 88 137 131 126 123 118 123 126 116 111 109 107 104 99 94 91 90 91 91
88 83 63 46 18 18 23 22 19 23 23 27 32 33 34 38 43 48 48 48 48 43 40 37 34 29 23 4 349 344 334 149 152 135 129 120 119 123 118 111 110 111 106 102 98 95 92 86 89
102 102 86 57 359 358 5 19 18 18 19 25 29 32 34 38 41 43 43 40 41 37 36 31 29 16 4 351 334 331 334 323 230 172 141 119 116 119 116 113 114 117 113 106 101 99 95 87 86
107 96 102 129 325 338 354 10 11 12 18 24 26 30 32 35 38 39 38 34 29 30 30 28 22 15 360 341 324 326 323 299 280 225 186 150 132 129 122 123 125 124 118 112 107 100 104 93 87
106 118 170 186 211 348 355 355 358 355 11 21 23 26 28 30 33 35 35 31 24 21 21 17 10 4 357 343 323 318 318 300 271 243 204 136 122 136 121 124 127 127 118 115 111 106 98 93 84
141 152 188 214 235 176 355 351 351 347 1 4 10 23 24 26 29 29 28 26 22 16 12 10 3 356 355 350 337 321 307 305 305 322 324 47 95 114 115 118 128 131 122 116 109 111 99 91 80
175 195 199 208 222 234 234 302 322 336 340 355 4 13 20 23 24 23 22 19 15 12 8 4 359 355 354 352 343 335 322 321 330 320 325 8 52 127 123 108 111 127 115 106 98 104 95 86 72
202 221 229 225 221 234 235 266 298 314 332 346 352 7 14 17 18 18 19 17 14 9 6 2 356 354 354 350 343 339 340 332 321 304 310 319 17 135 129 103 104 116 123 112 99 99 77 66 67
215 220 229 233 238 230 227 268 286 296 322 332 341 356 5 11 12 13 15 16 16 13 9 2 354 350 347 346 342 339 336 330 314 290 291 294 230 130 199 191 217 207 210 238 246 121 95 39 42
217 218 227 242 250 250 235 255 267 289 309 322 332 344 355 4 7 9 10 11 11 10 8 3 359 351 343 341 337 332 330 327 317 283 270 268 263 262 278 263 283 267 266 297 295 286 191 301 351
221 220 227 243 256 258 242 246 256 286 303 316 325 335 348 357 1 4 6 6 5 6 7 4 2 354 348 338 333 323 316 306 300 290 277 270 271 280 287 286 290 277 280 295 306 296 285 272 291
224 230 227 243 256 257 246 244 266 277 291 304 316 324 338 350 354 358 1 2 0 2 5 5 4 356 351 342 329 326 315 302 290 285 280 273 275 277 278 278 281 280 279 280 290 288 286 276 281
224 235 228 234 253 258 251 242 257 278 284 291 302 312 326 337 344 348 351 354 356 356 360 2 3 359 357 351 340 336 327 313 291 282 277 274 274 283 285 279 274 274 276 275 279 287 284 280 278
209 215 221 231 246 255 251 246 252 263 274 281 291 302 311 322 331 337 340 343 347 350 350 353 355 354 349 347 340 333 326 318 298 286 282 281 278 281 287 286 275 271 276 277 276 279 279 278 276
211 217 220 231 244 254 254 252 251 254 269 275 285 294 301 310 319 327 331 334 336 340 342 343 340 341 340 341 342 339 328 316 302 293 288 285 279 277 284 281 277 272 273 275 278 277 279 275 276
220 221 222 227 243 251 252 253 258 262 270 278 283 286 291 299 308 317 323 326 327 330 332 334 333 332 330 335 337 336 331 319 305 290 289 283 281 281 279 278 274 268 268 269 273 278 281 280 279
227 225 226 228 238 245 251 252 258 263 270 278 282 284 286 291 298 305 314 316 320 323 325 327 328 326 325 326 325 327 327 325 321 305 296 290 281 282 281 276 271 267 266 265 268 272 277 279 279
227 227 229 231 236 240 242 246 252 262 263 272 282 285 284 289 292 296 301 304 312 316 319 322 323 322 320 320 320 320 319 317 318 308 300 299 289 282 285 276 271 270 266 265 267 271 274 277 280
225 227 231 232 237 242 236 238 244 255 262 265 273 279 282 284 288 292 293 298 306 312 315 318 318 318 318 318 317 316 316 315 315 311 305 303 298 284 281 278 273 271 269 269 269 271 274 274 278
225 225 229 233 238 245 243 240 243 247 251 255 263 272 277 281 284 288 290 293 300 306 310 313 314 314 315 315 316 316 314 314 310 309 308 303 300 293 282 279 276 277 277 275 274 273 277 277 277
227 226 226 227 242 253 246 242 243 246 254 258 261 265 268 272 278 283 286 288 291 297 304 309 313 313 313 312 312 315 312 315 314 311 308 301 300 300 295 284 281 281 280 276 275 277 280 281 281
226 225 222 223 226 239 245 250 252 256 257 257 261 262 264 267 271 277 279 282 285 289 297 303 306 310 311 312 312 313 313 312 310 308 306 305 303 301 297 288 284 283 282 279 280 282 283 283 285
224 225 218 218 225 231 238 246 253 264 267 262 260 261 264 266 268 271 276 279 283 288 292 297 300 302 305 307 311 312 313 310 307 307 307 305 302 299 295 290 283 281 280 280 281 284 285 286 288
221 221 220 221 222 227 237 243 248 254 264 268 265 260 262 265 266 268 272 273 278 283 287 291 295 295 297 299 302 306 308 306 303 303 303 300 302 300 292 289 287 287 286 288 289 290 286 287 291
224 221 221 222 224 222 228 245 243 246 259 265 264 260 263 264 265 269 272 271 278 281 284 287 291 292 293 295 298 301 303 303 301 301 302 299 300 302 296 290 287 287 289 291 292 293 288 287 290
Height
5908 5908 5908 5907 5906 5908 5908 5907 5905 5904 5903 5902 5901 5900 5899 5898 5899 5900 5897 5896 5896 5896 5895 5896 5896 5896 5896 5896 5896 5895 5895 5895 5895 5895 5895 5896 5896 5896 5897 5897 5898 5898 5899 5899 5899 5900 5900 5900 5900
5911 5912 5910 5908 5911 5911 5911 5909 5907 5907 5905 5904 5903 5902 5901 5900 5900 5899 5898 5898 5898 5898 5897 5898 5898 5898 5898 5898 5897 5897 5897 5897 5897 5897 5897 5897 5897 5898 5898 5899 5899 5900 5900 5900 5901 5901 5901 5902 5902
5913 5913 5911 5914 5916 5914 5913 5912 5910 5909 5907 5906 5905 5904 5903 5902 5901 5900 5900 5900 5899 5899 5899 5899 5899 5899 5899 5899 5899 5899 5899 5899 5898 5898 5899 5899 5899 5899 5900 5900 5900 5901 5902 5902 5902 5903 5903 5903 5903
5916 5914 5914 5919 5918 5917 5916 5914 5912 5911 5909 5908 5908 5906 5905 5904 5903 5902 5901 5901 5901 5901 5900 5900 5900 5900 5901 5901 5901 5900 5900 5900 5900 5900 5900 5900 5900 5901 5901 5902 5902 5902 5903 5903 5904 5904 5904 5904 5904
5916 5916 5919 5921 5921 5920 5918 5916 5915 5913 5911 5910 5910 5908 5907 5906 5905 5904 5903 5903 5903 5902 5902 5902 5902 5902 5902 5902 5902 5902 5902 5901 5901 5901 5902 5902 5902 5902 5902 5903 5904 5904 5904 5905 5905 5905 5905 5905 5905
5917 5920 5924 5924 5923 5922 5921 5919 5917 5916 5914 5913 5911 5910 5909 5908 5907 5906 5905 5904 5904 5904 5903 5903 5903 5903 5903 5903 5903 5903 5903 5903 5903 5903 5903 5903 5903 5904 5904 5904 5905 5905 5906 5906 5906 5906 5906 5906 5906
5920 5923 5926 5927 5926 5925 5923 5921 5919 5918 5916 5915 5914 5912 5911 5910 5909 5907 5907 5906 5906 5905 5905 5904 5904 5904 5904 5904 5904 5904 5904 5904 5904 5904 5904 5904 5905 5905 5905 5905 5906 5906 5907 5907 5907 5908 5908 5908 5908
5923 5925 5928 5930 5928 5927 5925 5923 5921 5919 5919 5917 5916 5915 5913 5912 5911 5909 5908 5908 5907 5907 5906 5906 5906 5905 5905 5905 5905 5905 5905 5905 5905 5905 5905 5906 5906 5906 5906 5907 5907 5907 5908 5908 5908 5909 5909 5909 5909
5925 5928 5930 5931 5930 5928 5926 5925 5923 5922 5920 5919 5918 5917 5915 5914 5912 5911 5910 5909 5909 5908 5908 5907 5907 5907 5906 5906 5906 5906 5906 5906 5906 5906 5906 5906 5907 5907 5907 5908 5908 5909 5909 5909 5910 5910 5910 5910 5910
5927 5929 5930 5930 5930 5929 5928 5927 5925 5923 5921 5920 5919 5918 5917 5915 5914 5913 5912 5911 5910 5910 5909 5908 5908 5908 5907 5907 5906 5906 5906 5906 5906 5907 5907 5907 5908 5908 5908 5909 5909 5910 5910 5910 5910 5911 5911 5911 5911
5928 5929 5930 5930 5929 5930 5929 5928 5926 5924 5923 5922 5920 5919 5918 5917 5916 5915 5914 5913 5912 5911 5910 5910 5909 5908 5908 5908 5907 5907 5907 5907 5907 5907 5907 5908 5908 5908 5909 5909 5910 5910 5911 5911 5911 5912 5912 5912 5912
5928 5929 5930 5930 5930 5929 5930 5929 5928 5926 5925 5923 5922 5921 5920 5919 5917 5916 5915 5914 5913 5912 5911 5911 5910 5909 5909 5908 5908 5908 5908 5908 5908 5908 5908 5908 5909 5909 5910 5910 5911 5911 5912 5912 5912 5913 5913 5913 5913
5927 5929 5929 5929 5929 5929 5929 5930 5929 5927 5925 5924 5923 5922 5921 5920 5919 5917 5916 5915 5914 5913 5912 5912 5911 5910 5910 5909 5909 5909 5909 5909 5908 5908 5909 5909 5910 5910 5910 5911 5911 5912 5912 5913 5913 5913 5913 5913 5914
5925 5927 5928 5928 5929 5929 5929 5929 5929 5928 5927 5926 5925 5923 5922 5921 5920 5919 5917 5916 5915 5914 5913 5912 5911 5911 5910 5910 5909 5909 5909 5909 5908 5908 5909 5909 5910 5911 5911 5912 5912 5913 5913 5913 5914 5914 5914 5914 5914
5923 5925 5927 5928 5929 5929 5929 5929 5928 5927 5927 5926 5925 5924 5923 5922 5921 5920 5918 5917 5916 5915 5914 5913 5912 5911 5910 5910 5910 5909 5909 5908 5908 5908 5909 5910 5910 5911 5911 5912 5913 5913 5913 5914 5914 5914 5915 5914 5915
5921 5924 5926 5929 5928 5929 5930 5929 5928 5927 5927 5926 5925 5924 5923 5922 5921 5920 5919 5918 5917 5916 5914 5913 5912 5911 5911 5910 5910 5909 5909 5909 5908 5908 5909 5910 5910 5911 5911 5912 5913 5913 5913 5914 5914 5914 5915 5915 5915
5920 5923 5926 5929 5928 5928 5929 5929 5927 5926 5926 5926 5925 5925 5924 5923 5922 5921 5920 5919 5918 5916 5915 5914 5913 5912 5911 5910 5910 5909 5909 5909 5909 5909 5909 5910 5910 5911 5911 5912 5912 5913 5913 5913 5914 5914 5914 5915 5915
5920 5923 5927 5929 5927 5927 5927 5927 5926 5926 5925 5924 5925 5924 5924 5923 5922 5921 5920 5919 5918 5917 5916 5914 5913 5912 5911 5910 5910 5909 5909 5908 5908 5908 5909 5909 5910 5910 5911 5911 5912 5912 5913 5913 5913 5914 5914 5914 5914
5918 5921 5925 5927 5926 5925 5926 5926 5925 5926 5925 5924 5923 5923 5923 5923 5922 5921 5920 5919 5918 5917 5916 5915 5913 5912 5911 5910 5910 5909 5909 5908 5908 5908 5909 5909 5909 5910 5910 5911 5911 5911 5912 5912 5912 5913 5913 5913 5913
5913 5918 5922 5924 5923 5923 5924 5923 5922 5922 5924 5923 5923 5923 5922 5922 5922 5921 5920 5919 5918 5917 5916 5915 5914 5913 5911 5910 5910 5909 5909 5908 5907 5907 5908 5908 5908 5909 5909 5909 5910 5910 5910 5911 5911 5911 5912 5912 5912
5909 5913 5918 5921 5921 5921 5921 5922 5921 5921 5922 5922 5922 5922 5921 5921 5921 5920 5919 5919 5918 5917 5915 5914 5913 5912 5911 5910 5910 5909 5908 5908 5907 5907 5907 5907 5907 5907 5908 5908 5908 5909 5909 5909 5910 5910 5910 5910 5911
5905 5909 5913 5916 5917 5918 5920 5921 5921 5921 5921 5920 5920 5920 5920 5919 5919 5919 5918 5917 5917 5916 5915 5914 5913 5912 5910 5909 5909 5908 5907 5907 5906 5906 5906 5906 5906 5905 5906 5906 5906 5907 5907 5907 5908 5908 5908 5909 5909
5901 5905 5908 5911 5913 5915 5916 5918 5920 5919 5918 5918 5918 5918 5917 5917 5917 5917 5917 5916 5915 5914 5914 5913 5912 5910 5909 5908 5907 5907 5906 5906 5905 5905 5904 5904 5903 5903 5903 5903 5904 5904 5905 5905 5905 5906 5906 5906 5906
5897 5901 5904 5906 5909 5911 5913 5916 5917 5916 5916 5916 5915 5916 5916 5916 5915 5915 5915 5915 5914 5913 5912 5911 5910 5909 5908 5907 5906 5905 5904 5903 5903 5903 5903 5902 5902 5901 5901 5901 5902 5902 5902 5903 5903 5903 5903 5903 5903
5892 5897 5900 5902 5904 5907 5910 5912 5914 5913 5913 5913 5913 5913 5913 5913 5913 5913 5913 5912 5912 5911 5911 5910 5909 5907 5906 5905 5904 5904 5903 5902 5901 5900 5900 5900 5900 5899 5899 5899 5899 5900 5900 5900 5900 5900 5900 5900 5900
5887 5892 5897 5901 5904 5905 5906 5908 5911 5910 5910 5910 5911 5911 5911 5911 5911 5910 5910 5910 5910 5909 5908 5908 5907 5906 5905 5904 5903 5902 5901 5900 5899 5899 5898 5898 5898 5897 5897 5897 5897 5897 5897 5897 5898 5898 5897 5897 5897
5882 5887 5893 5897 5901 5903 5904 5905 5906 5906 5907 5907 5907 5908 5908 5908 5908 5908 5908 5907 5907 5906 5905 5906 5905 5904 5903 5902 5901 5900 5900 5899 5898 5897 5897 5896 5895 5895 5895 5895 5895 5895 5895 5895 5894 5894 5894 5894 5894
5878 5883 5887 5891 5895 5899 5902 5903 5902 5900 5901 5903 5903 5904 5904 5905 5905 5905 5904 5904 5904 5903 5903 5903 5903 5902 5902 5900 5900 5898 5897 5896 5896 5895 5894 5894 5893 5892 5892 5892 5892 5892 5892 5891 5891 5891 5891 5891 5890
5873 5878 5882 5887 5891 5895 5898 5900 5898 5896 5897 5898 5899 5900 5900 5900 5901 5901 5900 5900 5901 5901 5901 5901 5901 5900 5899 5899 5898 5896 5895 5894 5893 5892 5892 5891 5890 5889 5889 5889 5889 5889 5888 5888 5888 5888 5887 5887 5886
5868 5872 5877 5882 5885 5889 5892 5896 5892 5892 5893 5894 5894 5895 5896 5897 5897 5897 5896 5896 5897 5898 5898 5898 5898 5897 5897 5896 5895 5894 5892 5891 5890 5889 5888 5888 5887 5887 5886 5886 5886 5886 5885 5885 5885 5884 5883 5883 5882